Location: Unspecified
(0.0000°N, 0.0000°E)
Time: 21:53:53
(UTC+00:00)

Transit 2A - All Passes

Search period start: 25 November 2014 00:00
Search period end: 05 December 2014 00:00
Orbit: 596 x 966 km, 66.7° (Epoch: 25 November)

Date Brightness Start Highest point End Pass type
(mag) Time Alt. Az. Time Alt. Az. Time Alt. Az.
25 Nov - 04:40:22 10° NNE 04:44:37 19° ENE 04:48:50 10° ESE visible
25 Nov - 06:21:46 10° NW 06:27:41 41° WSW 06:33:32 10° S daylight
25 Nov - 17:15:19 10° S 17:19:17 36° ESE 17:23:16 10° NE daylight
26 Nov - 04:09:14 10° NE 04:11:01 11° ENE 04:12:47 10° E visible
26 Nov - 05:47:51 10° NNW 05:54:08 65° WSW 06:00:20 10° S daylight
26 Nov - 16:42:33 10° SSE 16:45:44 20° ESE 16:48:56 10° ENE daylight
26 Nov - 18:26:11 10° WSW 18:28:37 15° WNW 18:31:05 10° NW visible
27 Nov - 05:14:13 10° NNW 05:20:35 83° ENE 05:26:52 10° SSE visible
27 Nov - 16:10:58 10° SE 16:12:11 11° ESE 16:13:23 10° E daylight
27 Nov - 17:51:26 10° SW 17:55:03 26° WNW 17:58:43 10° NNW daylight
28 Nov - 04:40:52 10° N 04:47:01 53° ENE 04:53:07 10° SE visible
28 Nov - 06:26:56 10° W 06:30:04 14° WSW 06:33:11 10° SW daylight
28 Nov - 17:17:21 10° SW 17:21:30 49° WNW 17:25:43 10° N daylight
29 Nov - 04:07:48 10° N 04:13:27 34° ENE 04:19:03 10° SE visible
29 Nov - 05:51:41 10° WNW 05:56:30 23° WSW 06:01:14 10° SSW daylight
29 Nov - 16:43:39 10° SSW 16:47:57 87° ESE 16:52:19 10° NNE daylight
30 Nov - 03:35:08 10° NNE 03:39:52 22° ENE 03:44:34 10° ESE visible
30 Nov - 05:17:14 10° NW 05:22:56 35° WSW 05:28:32 10° S visible
30 Nov - 16:10:18 10° S 16:14:24 45° ESE 16:18:35 10° NE daylight
01 Dec - 03:03:16 10° NE 03:06:16 14° ENE 03:09:14 10° E visible
01 Dec - 04:43:11 10° NNW 04:49:22 55° WSW 04:55:27 10° S visible
01 Dec - 15:37:20 10° SSE 15:40:52 25° ESE 15:44:26 10° NE daylight
01 Dec - 17:22:06 10° W 17:23:46 12° WNW 17:25:28 10° NW daylight
02 Dec - 04:09:26 10° NNW 04:15:49 85° WSW 04:22:04 10° SSE visible
02 Dec - 15:05:05 10° SE 15:07:19 14° ESE 15:09:32 10° ENE daylight
02 Dec - 16:46:52 10° WSW 16:50:11 22° WNW 16:53:34 10° NNW daylight
03 Dec - 03:35:58 10° N 03:42:15 63° ENE 03:48:24 10° SSE visible
03 Dec - 05:23:19 10° W 05:25:17 12° WSW 05:27:15 10° SW visible
03 Dec - 16:12:35 10° SW 16:16:36 39° WNW 16:20:43 10° N daylight
04 Dec - 03:02:47 10° N 03:08:40 40° ENE 03:14:27 10° SE visible
04 Dec - 04:47:23 10° WNW 04:51:42 19° WSW 04:55:57 10° SSW visible
04 Dec - 15:38:46 10° SSW 15:43:02 75° WNW 15:47:26 10° NNE daylight
